Time,TemperatureF,DewpointF,PressureIn,WindDirection,WindDirectionDegrees,WindSpeedMPH,WindSpeedGustMPH,Humidity,HourlyPrecipIn,Conditions,Clouds,dailyrainin,SoftwareType,DateUTC
2013-07-27 00:12:00,57.0,-99.9,29.89,NNW,340,18.0,-999.0,-999,-99.99,,,-99.99,,2013-07-27 05:12:00,
2013-07-27 00:22:00,57.0,-99.9,29.89,NNW,340,18.0,-999.0,-999,-99.99,,,-99.99,,2013-07-27 05:22:00,
2013-07-27 00:33:00,57.0,-99.9,29.89,NNW,340,18.0,-999.0,-999,-99.99,,,-99.99,,2013-07-27 05:33:00,
2013-07-27 00:40:00,56.0,-99.9,29.88,NNW,330,21.0,-999.0,-999,-99.99,,,-99.99,,2013-07-27 05:40:00,
2013-07-27 01:12:00,56.0,-99.9,29.88,NNW,330,21.0,-999.0,-999,-99.99,,,-99.99,,2013-07-27 06:12:00,
2013-07-27 01:22:00,56.0,-99.9,29.88,NNW,330,21.0,-999.0,-999,-99.99,,,-99.99,,2013-07-27 06:22:00,
2013-07-27 01:33:00,56.0,-99.9,29.88,NNW,330,21.0,-999.0,-999,-99.99,,,-99.99,,2013-07-27 06:33:00,
2013-07-27 02:02:00,56.0,-99.9,29.88,NNW,330,20.0,24.0,-999,-99.99,,,-99.99,,2013-07-27 07:02:00,
2013-07-27 02:34:00,55.0,-99.9,29.87,NNW,330,22.0,29.0,-999,-99.99,,,-99.99,,2013-07-27 07:34:00,
2013-07-27 02:40:00,54.0,-99.9,29.88,NW,320,17.0,23.0,-999,-99.99,,,-99.99,,2013-07-27 07:40:00,
2013-07-27 02:44:00,55.0,-99.9,29.87,NNW,330,22.0,29.0,-999,-99.99,,,-99.99,,2013-07-27 07:44:00,
2013-07-27 03:02:00,54.0,-99.9,29.88,NW,320,17.0,23.0,-999,-99.99,,,-99.99,,2013-07-27 08:02:00,
2013-07-27 03:12:00,54.0,-99.9,29.88,NW,320,17.0,23.0,-999,-99.99,,,-99.99,,2013-07-27 08:12:00,
2013-07-27 03:22:00,54.0,-99.9,29.88,NW,320,17.0,23.0,-999,-99.99,,,-99.99,,2013-07-27 08:22:00,
2013-07-27 03:32:00,54.0,-99.9,29.88,NW,320,17.0,23.0,-999,-99.99,,,-99.99,,2013-07-27 08:32:00,
2013-07-27 03:40:00,54.0,-99.9,29.89,NNW,330,15.0,22.0,-999,-99.99,,,-99.99,,2013-07-27 08:40:00,
2013-07-27 04:02:00,54.0,-99.9,29.89,NNW,330,15.0,22.0,-999,-99.99,,,-99.99,,2013-07-27 09:02:00,
2013-07-27 04:12:00,54.0,-99.9,29.89,NNW,330,15.0,22.0,-999,-99.99,,,-99.99,,2013-07-27 09:12:00,
2013-07-27 04:22:00,54.0,-99.9,29.89,NNW,330,15.0,22.0,-999,-99.99,,,-99.99,,2013-07-27 09:22:00,
2013-07-27 04:33:00,54.0,-99.9,29.89,NNW,330,15.0,22.0,-999,-99.99,,,-99.99,,2013-07-27 09:33:00,
2013-07-27 04:40:00,54.0,-99.9,29.89,NW,320,13.0,17.0,-999,-99.99,,,-99.99,,2013-07-27 09:40:00,
2013-07-27 05:02:00,54.0,-99.9,29.89,NW,320,13.0,17.0,-999,-99.99,,,-99.99,,2013-07-27 10:02:00,
2013-07-27 05:12:00,54.0,-99.9,29.89,NW,320,13.0,17.0,-999,-99.99,,,-99.99,,2013-07-27 10:12:00,
2013-07-27 05:22:00,54.0,-99.9,29.89,NW,320,13.0,17.0,-999,-99.99,,,-99.99,,2013-07-27 10:22:00,
2013-07-27 05:32:00,54.0,-99.9,29.89,NW,320,13.0,17.0,-999,-99.99,,,-99.99,,2013-07-27 10:32:00,
2013-07-27 05:40:00,54.0,-99.9,29.89,WNW,300,9.0,16.0,-999,-99.99,,,-99.99,,2013-07-27 10:40:00,
2013-07-27 06:02:00,54.0,-99.9,29.89,WNW,300,9.0,16.0,-999,-99.99,,,-99.99,,2013-07-27 11:02:00,
2013-07-27 06:12:00,54.0,-99.9,29.89,WNW,300,9.0,16.0,-999,-99.99,,,-99.99,,2013-07-27 11:12:00,
2013-07-27 06:22:00,54.0,-99.9,29.89,WNW,300,9.0,16.0,-999,-99.99,,,-99.99,,2013-07-27 11:22:00,
2013-07-27 06:32:00,54.0,-99.9,29.89,WNW,300,9.0,16.0,-999,-99.99,,,-99.99,,2013-07-27 11:32:00,
2013-07-27 06:40:00,54.0,-99.9,29.89,NW,310,12.0,16.0,-999,-99.99,,,-99.99,,2013-07-27 11:40:00,
2013-07-27 07:03:00,54.0,-99.9,29.89,NW,310,12.0,16.0,-999,-99.99,,,-99.99,,2013-07-27 12:03:00,
2013-07-27 07:13:00,54.0,-99.9,29.89,NW,310,12.0,16.0,-999,-99.99,,,-99.99,,2013-07-27 12:13:00,
2013-07-27 07:23:00,54.0,-99.9,29.89,NW,310,12.0,16.0,-999,-99.99,,,-99.99,,2013-07-27 12:23:00,
2013-07-27 07:33:00,54.0,-99.9,29.89,NW,310,12.0,16.0,-999,-99.99,,,-99.99,,2013-07-27 12:33:00,
2013-07-27 07:40:00,54.0,-99.9,29.89,WNW,290,8.0,14.0,-999,-99.99,,,-99.99,,2013-07-27 12:40:00,
2013-07-27 08:12:00,54.0,-99.9,29.89,WNW,290,8.0,14.0,-999,-99.99,,,-99.99,,2013-07-27 13:12:00,
2013-07-27 08:22:00,54.0,-99.9,29.89,WNW,290,8.0,14.0,-999,-99.99,,,-99.99,,2013-07-27 13:22:00,
2013-07-27 08:32:00,54.0,-99.9,29.89,WNW,290,8.0,14.0,-999,-99.99,,,-99.99,,2013-07-27 13:32:00,
2013-07-27 08:40:00,53.0,-99.9,29.88,NW,310,12.0,14.0,-999,-99.99,,,-99.99,,2013-07-27 13:40:00,
2013-07-27 09:02:00,53.0,-99.9,29.88,NW,310,12.0,14.0,-999,-99.99,,,-99.99,,2013-07-27 14:02:00,
2013-07-27 09:12:00,53.0,-99.9,29.88,NW,310,12.0,14.0,-999,-99.99,,,-99.99,,2013-07-27 14:12:00,
2013-07-27 09:22:00,53.0,-99.9,29.88,NW,310,12.0,14.0,-999,-99.99,,,-99.99,,2013-07-27 14:22:00,
2013-07-27 09:33:00,53.0,-99.9,29.88,NW,310,12.0,14.0,-999,-99.99,,,-99.99,,2013-07-27 14:33:00,
2013-07-27 09:40:00,54.0,-99.9,29.88,West,280,6.0,13.0,-999,-99.99,,,-99.99,,2013-07-27 14:40:00,
2013-07-27 10:02:00,54.0,-99.9,29.88,West,280,6.0,13.0,-999,-99.99,,,-99.99,,2013-07-27 15:02:00,
2013-07-27 10:12:00,54.0,-99.9,29.88,West,280,6.0,13.0,-999,-99.99,,,-99.99,,2013-07-27 15:12:00,
2013-07-27 10:22:00,54.0,-99.9,29.88,West,280,6.0,13.0,-999,-99.99,,,-99.99,,2013-07-27 15:22:00,
2013-07-27 10:33:00,54.0,-99.9,29.88,West,280,6.0,13.0,-999,-99.99,,,-99.99,,2013-07-27 15:33:00,
2013-07-27 10:40:00,55.0,-99.9,29.87,NNW,330,8.0,10.0,-999,-99.99,,,-99.99,,2013-07-27 15:40:00,
2013-07-27 11:02:00,55.0,-99.9,29.87,NNW,330,8.0,10.0,-999,-99.99,,,-99.99,,2013-07-27 16:02:00,
2013-07-27 11:12:00,55.0,-99.9,29.87,NNW,330,8.0,10.0,-999,-99.99,,,-99.99,,2013-07-27 16:12:00,
2013-07-27 11:23:00,55.0,-99.9,29.87,NNW,330,8.0,10.0,-999,-99.99,,,-99.99,,2013-07-27 16:23:00,
2013-07-27 11:33:00,55.0,-99.9,29.87,NNW,330,8.0,10.0,-999,-99.99,,,-99.99,,2013-07-27 16:33:00,
2013-07-27 11:40:00,55.0,-99.9,29.86,NW,320,7.0,13.0,-999,-99.99,,,-99.99,,2013-07-27 16:40:00,
2013-07-27 12:02:00,55.0,-99.9,29.86,NW,320,7.0,13.0,-999,-99.99,,,-99.99,,2013-07-27 17:02:00,
2013-07-27 12:13:00,55.0,-99.9,29.86,NW,320,7.0,13.0,-999,-99.99,,,-99.99,,2013-07-27 17:13:00,
2013-07-27 12:23:00,55.0,-99.9,29.86,NW,320,7.0,13.0,-999,-99.99,,,-99.99,,2013-07-27 17:23:00,
2013-07-27 12:32:00,55.0,-99.9,29.86,NW,320,7.0,13.0,-999,-99.99,,,-99.99,,2013-07-27 17:32:00,
2013-07-27 12:40:00,57.0,-99.9,29.85,NW,320,2.0,10.0,-999,-99.99,,,-99.99,,2013-07-27 17:40:00,
2013-07-27 13:03:00,57.0,-99.9,29.85,NW,320,2.0,10.0,-999,-99.99,,,-99.99,,2013-07-27 18:03:00,
2013-07-27 13:12:00,57.0,-99.9,29.85,NW,320,2.0,10.0,-999,-99.99,,,-99.99,,2013-07-27 18:12:00,
2013-07-27 13:22:00,57.0,-99.9,29.85,NW,320,2.0,10.0,-999,-99.99,,,-99.99,,2013-07-27 18:22:00,
2013-07-27 13:33:00,57.0,-99.9,29.85,NW,320,2.0,10.0,-999,-99.99,,,-99.99,,2013-07-27 18:33:00,
2013-07-27 13:40:00,58.0,-99.9,29.85,North,350,6.0,9.0,-999,-99.99,,,-99.99,,2013-07-27 18:40:00,
2013-07-27 14:02:00,58.0,-99.9,29.85,North,350,6.0,9.0,-999,-99.99,,,-99.99,,2013-07-27 19:02:00,
2013-07-27 14:23:00,58.0,-99.9,29.85,North,350,6.0,9.0,-999,-99.99,,,-99.99,,2013-07-27 19:23:00,
2013-07-27 14:32:00,58.0,-99.9,29.85,North,350,6.0,9.0,-999,-99.99,,,-99.99,,2013-07-27 19:32:00,
2013-07-27 14:40:00,58.0,-99.9,29.84,North,360,8.0,9.0,-999,-99.99,,,-99.99,,2013-07-27 19:40:00,
2013-07-27 15:02:00,58.0,-99.9,29.84,North,360,8.0,9.0,-999,-99.99,,,-99.99,,2013-07-27 20:02:00,
2013-07-27 15:12:00,58.0,-99.9,29.84,North,360,8.0,9.0,-999,-99.99,,,-99.99,,2013-07-27 20:12:00,
2013-07-27 15:23:00,58.0,-99.9,29.84,North,360,8.0,9.0,-999,-99.99,,,-99.99,,2013-07-27 20:23:00,
2013-07-27 15:33:00,58.0,-99.9,29.84,North,360,8.0,9.0,-999,-99.99,,,-99.99,,2013-07-27 20:33:00,
2013-07-27 15:40:00,59.0,-99.9,29.83,SE,140,6.0,8.0,-999,-99.99,,,-99.99,,2013-07-27 20:40:00,
2013-07-27 16:03:00,59.0,-99.9,29.83,SE,140,6.0,8.0,-999,-99.99,,,-99.99,,2013-07-27 21:03:00,
2013-07-27 16:12:00,59.0,-99.9,29.83,SE,140,6.0,8.0,-999,-99.99,,,-99.99,,2013-07-27 21:12:00,
2013-07-27 16:23:00,59.0,-99.9,29.83,SE,140,6.0,8.0,-999,-99.99,,,-99.99,,2013-07-27 21:23:00,
2013-07-27 16:33:00,59.0,-99.9,29.83,SE,140,6.0,8.0,-999,-99.99,,,-99.99,,2013-07-27 21:33:00,
2013-07-27 16:40:00,59.0,-99.9,29.83,SE,140,3.0,6.0,-999,-99.99,,,-99.99,,2013-07-27 21:40:00,
2013-07-27 17:02:00,59.0,-99.9,29.83,SE,140,3.0,6.0,-999,-99.99,,,-99.99,,2013-07-27 22:02:00,
2013-07-27 17:13:00,59.0,-99.9,29.83,SE,140,3.0,6.0,-999,-99.99,,,-99.99,,2013-07-27 22:13:00,
2013-07-27 17:22:00,59.0,-99.9,29.83,SE,140,3.0,6.0,-999,-99.99,,,-99.99,,2013-07-27 22:22:00,
2013-07-27 17:33:00,59.0,-99.9,29.83,SE,140,3.0,6.0,-999,-99.99,,,-99.99,,2013-07-27 22:33:00,
2013-07-27 17:40:00,60.0,-99.9,29.81,South,180,3.0,6.0,-999,-99.99,,,-99.99,,2013-07-27 22:40:00,
2013-07-27 18:02:00,60.0,-99.9,29.81,South,180,3.0,6.0,-999,-99.99,,,-99.99,,2013-07-27 23:02:00,
2013-07-27 18:12:00,60.0,-99.9,29.81,South,180,3.0,6.0,-999,-99.99,,,-99.99,,2013-07-27 23:12:00,
2013-07-27 18:22:00,60.0,-99.9,29.81,South,180,3.0,6.0,-999,-99.99,,,-99.99,,2013-07-27 23:22:00,
2013-07-27 18:30:00,60.0,-99.9,29.82,SSW,200,2.0,5.0,-999,-99.99,,,-99.99,,2013-07-27 23:30:00,
2013-07-27 18:33:00,60.0,-99.9,29.81,South,180,3.0,6.0,-999,-99.99,,,-99.99,,2013-07-27 23:33:00,
2013-07-27 19:02:00,60.0,-99.9,29.82,SSW,200,2.0,5.0,-999,-99.99,,,-99.99,,2013-07-28 00:02:00,
2013-07-27 19:12:00,60.0,-99.9,29.82,SSW,200,2.0,5.0,-999,-99.99,,,-99.99,,2013-07-28 00:12:00,
2013-07-27 19:23:00,60.0,-99.9,29.82,SSW,200,2.0,5.0,-999,-99.99,,,-99.99,,2013-07-28 00:23:00,
2013-07-27 19:40:00,56.0,-99.9,29.83,South,190,2.0,3.0,-999,-99.99,,,-99.99,,2013-07-28 00:40:00,
2013-07-27 20:02:00,56.0,-99.9,29.83,South,190,2.0,3.0,-999,-99.99,,,-99.99,,2013-07-28 01:02:00,
2013-07-27 20:12:00,56.0,-99.9,29.83,South,190,2.0,3.0,-999,-99.99,,,-99.99,,2013-07-28 01:12:00,
2013-07-27 20:23:00,56.0,-99.9,29.83,South,190,2.0,3.0,-999,-99.99,,,-99.99,,2013-07-28 01:23:00,
2013-07-27 20:33:00,56.0,-99.9,29.83,South,190,2.0,3.0,-999,-99.99,,,-99.99,,2013-07-28 01:33:00,
2013-07-27 20:40:00,55.0,-99.9,29.82,SSW,200,2.0,3.0,-999,-99.99,,,-99.99,,2013-07-28 01:40:00,
2013-07-27 21:03:00,55.0,-99.9,29.82,SSW,200,2.0,3.0,-999,-99.99,,,-99.99,,2013-07-28 02:03:00,
2013-07-27 21:12:00,55.0,-99.9,29.82,SSW,200,2.0,3.0,-999,-99.99,,,-99.99,,2013-07-28 02:12:00,
2013-07-27 21:23:00,55.0,-99.9,29.82,SSW,200,2.0,3.0,-999,-99.99,,,-99.99,,2013-07-28 02:23:00,
2013-07-27 21:32:00,55.0,-99.9,29.82,SSW,200,2.0,3.0,-999,-99.99,,,-99.99,,2013-07-28 02:32:00,
2013-07-27 21:40:00,55.0,-99.9,29.82,West,270,5.0,6.0,-999,-99.99,,,-99.99,,2013-07-28 02:40:00,
2013-07-27 22:03:00,55.0,-99.9,29.82,West,270,5.0,6.0,-999,-99.99,,,-99.99,,2013-07-28 03:03:00,
2013-07-27 22:12:00,55.0,-99.9,29.82,West,270,5.0,6.0,-999,-99.99,,,-99.99,,2013-07-28 03:12:00,
2013-07-27 22:22:00,55.0,-99.9,29.82,West,270,5.0,6.0,-999,-99.99,,,-99.99,,2013-07-28 03:22:00,
2013-07-27 22:32:00,55.0,-99.9,29.82,West,270,5.0,6.0,-999,-99.99,,,-99.99,,2013-07-28 03:32:00,
2013-07-27 22:40:00,57.0,-99.9,29.81,WNW,290,6.0,8.0,-999,-99.99,,,-99.99,,2013-07-28 03:40:00,
2013-07-27 23:02:00,57.0,-99.9,29.81,WNW,290,6.0,8.0,-999,-99.99,,,-99.99,,2013-07-28 04:02:00,
2013-07-27 23:12:00,57.0,-99.9,29.81,WNW,290,6.0,8.0,-999,-99.99,,,-99.99,,2013-07-28 04:12:00,
2013-07-27 23:22:00,57.0,-99.9,29.81,WNW,290,6.0,8.0,-999,-99.99,,,-99.99,,2013-07-28 04:22:00,
2013-07-27 23:32:00,57.0,-99.9,29.81,WNW,290,6.0,8.0,-999,-99.99,,,-99.99,,2013-07-28 04:32:00,
2013-07-27 23:40:00,57.0,-99.9,29.80,West,260,3.0,6.0,-999,-99.99,,,-99.99,,2013-07-28 04:40:00,